Location: Hobi?a Gr?di?te
(45.4833°N, 22.7833°E)
Time: 05:18:42
(UTC+00:00)

ATLAS CENTAUR R/B - Pass Details

Date: 28 January 2023
Orbit: 449 x 650 km, 64.7° (Epoch: 28 March)

Event Time Altitude Azimuth Distance (km) Brightness Sun altitude
Rises 15:57:27 0° 180° (S) 2,985 5.3 -5.4°
Reaches altitude 10° 16:00:07 10° 166° (SSE) 2,075 4.3 -5.8°
Maximum altitude 16:03:52 24° 114° (ESE) 1,363 2.9 -6.4°
Drops below altitude 10° 16:07:35 10° 61° (ENE) 2,042 3.6 -7.1°
Enters shadow 16:08:03 - 58° (ENE) 2,191 3.7 -7.1°
